Location: Unspecified
(0.0000°N, 0.0000°E)
Time: 18:57:15
(UTC+00:00)

Altair - Pass Details

Date: 24 November 2019
Orbit: 1502 x 1682 km, 47.2° (Epoch: 08 December)

Event Time Altitude Azimuth Distance (km) Brightness Sun altitude
Rises 08:18:56 0° 349° (N) 4,685 9.7 35.3°
Reaches altitude 10° 08:23:17 10° 7° (N) 3,735 9.5 36.3°
Maximum altitude 08:29:24 19° 48° (NE) 3,147 9.6 37.6°
Drops below altitude 10° 08:35:36 10° 88° (E) 3,836 10.5 39.0°
Sets 08:40:06 0° 105° (ESE) 4,856 11.0 40.0°
